Regional Weather Roundup
Issued by NWS Charleston, SC

Current Version | Previous Version | Graphics & Text | Print | Product List | Glossary On
Versions: 1 2 3 4 5 6 7 8 9 10 11 12 13 14 15 16 17 18 19 20 21 22 23 24 25 26 27 28 29 30 31 32 33 34 35 36 37 38 39 40 41 42 43 44 45 46 47 48 49 50
000 ASUS42 KCHS 231928 RWRCHS REGIONAL WEATHER ROUNDUP NATIONAL WEATHER SERVICE CHARLESTON SC 300 PM EDT SAT JUL 23 2016 NOTE: "FAIR" INDICATES FEW OR NO CLOUDS BELOW 12,000 FEET WITH NO SIGNIFICANT WEATHER AND/OR OBSTRUCTIONS TO VISIBILITY. NOT ALL STATIONS ARE QUALITY CONTROLLED. USE DATA WITH CAUTION... ESPECIALLY DEWPOINT OBSERVATIONS. SCZ027-030-031-034>040-042>050-232000- ...SOUTHEAST SOUTH CAROLINA... CITY SKY/WX TMP DP RH WIND PRES REMARKS N CHARLESTON MOSUNNY 95 70 44 VRB3 29.98F HX 101 WATERFRONT PRK N/A 87 78 74 S10 29.98F HX 100 MOUNT PLEASANT FAIR 90 75 62 S10 30.00S HX 100 JOHNS ISLAND FAIR 91 77 62 S10 30.00S HX 105 PINOPOLIS N/A 91 73 55 CALM 29.90F HX 100 MONCKS CORNER FAIR 91 66 43 S7 29.98S HX 94 SUMMERVILLE FAIR 95 70 43 SW5 29.99S HX 101 BEAUFORT MCAS SUNNY 95 74 50 SE3 29.99F HX 105 BEAUFORT ARPT FAIR 91 73 55 S6 29.98F HX 100 HILTON HEAD IS MOSUNNY 97 77 52 SE9 30.00F HX 112 WALTERBORO CLEAR 97 68 38 S9 29.98F HX 101 ALLENDALE FAIR 95 68 41 VRB5 29.97F HX 99 ...SOUTHERN MIDLANDS AND PEE DEE... CITY SKY/WX TMP DP RH WIND PRES REMARKS GEORGETOWN FAIR 88 75 66 S9 30.01S HX 97 KINGSTREE FAIR 95 68 41 S7 29.97F HX 99 ORANGEBURG SUNNY 94 71 47 W8 29.98F HX 101 BARNWELL NOT AVBL AIKEN FAIR 91 68 46 W10 30.02S HX 95 MANNING FAIR 91 72 52 SW9 29.97F HX 98 COLUMBIA CLOUDY 98 69 38 S13G18 29.96F HX 104 SUMTER SUNNY 95 71 46 SW9 29.95F HAZE HX 102 FLORENCE MOSUNNY 93 71 48 S7 29.97F HX 100 MYRTLE BEACH MOSUNNY 90 70 51 S13 30.01F HX 95 N MYRTLE BEACH SUNNY 87 73 62 S13 29.99F HX 94 $$ GAZ063-065-086>088-099>101-113>116-118-119-134>141-150-232000- ...SOUTHEAST GEORGIA... CITY SKY/WX TMP DP RH WIND PRES REMARKS SAVANNAH ARPT PTSUNNY 94 67 41 VRB3 29.99F HX 97 HUNTER AAF SUNNY 93 80 65 SE13 29.96F HX 111 FORT STEWART MOSUNNY 95 68 41 E6 29.96F HX 100 STATESBORO MOSUNNY 95 72 47 E3 29.99S HX 103 SYLVANIA NOT AVBL CLAXTON FAIR 96 73 46 CALM 29.98F HX 105 ...CSRA...CENTRAL AND FAR SOUTHEAST GEORGIA... CITY SKY/WX TMP DP RH WIND PRES REMARKS THOMSON NOT AVBL AUGUSTA-BUSH PTSUNNY 95 66 38 VRB7 29.96F HX 98 AUGUSTA-DANIEL CLOUDY 95 68 41 S8 29.99F HX 99 SWAINSBORO MOCLDY 97 66 36 SE6 29.99F HX 100 VIDALIA CLOUDY 95 68 41 SE6 30.00R HX 99 EASTMAN FAIR 96 51 21 W6 30.02S HX 93 HAZLEHURST MOCLDY 95 69 43 CALM 29.98F HX 101 ALMA SUNNY 94 71 47 SE5 29.99F HX 101 WAYCROSS MOSUNNY 100 68 35 SW6 29.99F HX 106 JESUP FAIR 97 72 44 CALM 29.99F HX 105 BAXLEY FAIR 97 75 49 S8 29.99S HX 109 BRUNSWICK SUNNY 95 75 52 S10 30.00F HX 107 SAINT SIMONS SUNNY 91 73 55 SE13 30.00F HX 99 $$ SCZ027-028-034-036>038-045-046-048>050-GAZ119-141-232000- ...LAKE AND SUPPLEMENTAL COASTAL OBSERVATIONS... STATION/POSITION TIME TEMP WIND PRES WAVE SWELL AIR SEA DIR/SP/G HT/PER HT/PER/DIR (UTC) (F) (DEG/KT/KT) (MB) (FT/S) (FT/S/D) WINYAH BAY 1845 85 170/ 8 1015.0F LAKE MURRAY 1800 90 220/ 6/ 8 1014.6F ACE BASIN NERRS 1845 91 160/ 2 1016.0F FORT PULASKI 1900 89 88 180/ 7/ 11 1016.0F SAPELO ISLAND 1900 93 160/ 10 1016.0F $$ ANZ835-935-AMZ111-154-330-350-352-354-370-450-454-472-232000- ...C-MAN AND BUOY OBSERVATIONS... STATION/POSITION TIME TEMP WIND PRES WAVE SWELL AIR SEA DIR/SP/G HT/PER HT/PER/DIR (UTC) (F) (DEG/KT/KT) (MB) (FT/S) (FT/S/D) BUOY 41004 1850 84 86 150/ 6/ 6 1016.0F 3/ 8 3/110/ 8 BUOY 41008 1850 85 88 170/ 10/ 12 1016.4F 2/ 9 2/110/ 9 FOLLY BEACH CMAN 1900 86 180/ 11/ 13 1016.3F CAPERS NEARSHORE 1908 85 85 200/ 12/ 14 1016.0F FRIPP NEARSHORE 1908 86 88 200/ 10/ 14 1015.3F STATION/POSITION TIME TEMP WIND PRES WAVE SWELL AIR SEA DIR/SP/G HT/PER HT/PER/DIR (UTC) (F) (DEG/KT/KT) (MB) (FT/S) (FT/S/D) 5E ST. MARYS GA 1901 87 N/A 2/ 9 FRYING PAN BUOY 1900 83 86 200/ 6/ 8 1016.0F BUOY 41025 1850 85 86 220/ 12/ 14 1016.3F 2/ 9 2/ 90/ 9 CAPE LOOKOUT NC 1900 86 210/ 9/ 12 1015.6F BUOY 41002 1850 83 87 20/ 2/ 4 1017.2F 3/ 8 3/110/ 8 BUOY 41010 1820 85 88 350/ 4/ 6 1017.3F ST AUGUSTINE FL 1900 84 88 90/ 7/ 8 1017.4F $$

USA.gov is the U.S. government's official web portal to all federal, state and local government web resources and services.